South Hill, VA

12:32 PM EST on December 12, 2019 (GMT -0500)
Mecklenburg-Brunswick Regional

Weather History for KAVC - September, 2019

Change the Weather History Date:

Sunday, September 22, 2019

  Actual Average (WUND) Record (WUND)
Temperature  
Mean Temperature 76 °F -  
Max Temperature 91 °F - - (-1)
Min Temperature 62 °F - - (-1)
Cooling Degree Days 12    
Growing Degree Days 26 (Base 50)    
Moisture  
Dew Point 64 °F    
Average Humidity 71    
Maximum Humidity 100    
Minimum Humidity 38    
Precipitation  
Precipitation 0.00 in - - ()
Sea Level Pressure  
Sea Level Pressure 30.21 in    
Wind  
Wind Speed 6 mph (SSW)    
Max Wind Speed 13 mph    
Max Gust Speed 17 mph    
Averages and records for this station are not official NWS values.
T = Trace of Precipitation, MM = Missing Value Source: NWS Daily Summary

Daily Weather History Graph

Daily Weather History Graph

Search for Another Location

Airport or City:

Astronomy

Sep. 22, 2019 Rise Set
Actual Time 6:59 AM EDT 7:09 PM EDT
Civil Twilight 6:34 AM EDT 7:35 PM EDT
Nautical Twilight 6:03 AM EDT 8:05 PM EDT
Astronomical Twilight 5:33 AM EDT 8:35 PM EDT
Moon No Moon Rise 2:53 PM EDT (9/22)
Length of Visible Light 13h 01m
Length of Day
12h 09m
Last Quarter, 44% of the Moon is Illuminated
Sep 22
Last Quarter
Sep 28
New
Oct 5
First Quarter
Oct 13
Full
Oct 21
Last Quarter

Hourly Weather History & Observations

Time (EDT) Temp. Heat Index Dew Point Humidity Pressure Visibility Wind Dir Wind Speed Gust Speed Precip Events Conditions
12:15 AM 68.4 °F - 64.0 °F 86% 30.28 in - SSW 4.6 mph - N/A   Unknown
12:35 AM 68.0 °F - 64.0 °F 87% 30.28 in - SSW 4.6 mph - N/A   Unknown
12:55 AM 67.8 °F - 63.9 °F 87% 30.28 in - SSW 4.6 mph - N/A   Unknown
1:15 AM 67.5 °F - 63.9 °F 88% 30.27 in - South 4.6 mph - N/A   Unknown
1:35 AM 67.1 °F - 63.9 °F 89% 30.27 in - South 4.6 mph - N/A   Unknown
1:55 AM 65.8 °F - 63.5 °F 92% 30.27 in - South 4.6 mph - N/A   Unknown
2:15 AM 66.9 °F - 63.7 °F 89% 30.27 in - South 6.9 mph - N/A   Unknown
2:35 AM 66.2 °F - 63.5 °F 91% 30.26 in - SSW 6.9 mph - N/A   Unknown
2:55 AM 65.5 °F - 63.5 °F 93% 30.26 in - South 5.8 mph - N/A   Unknown
3:15 AM 64.6 °F - 63.0 °F 94% 30.25 in - SSW 4.6 mph - N/A   Unknown
3:35 AM 64.9 °F - 63.3 °F 94% 30.25 in - SSW 5.8 mph - N/A   Unknown
3:55 AM 64.4 °F - 63.1 °F 96% 30.25 in - SSW 5.8 mph - N/A   Unknown
4:15 AM 63.7 °F - 63.0 °F 97% 30.25 in - SSW 5.8 mph - N/A   Unknown
4:55 AM 64.0 °F - 63.1 °F 97% 30.24 in - SSW 5.8 mph - N/A   Unknown
5:15 AM 63.3 °F - 63.0 °F 99% 30.24 in - SSW 5.8 mph - N/A   Unknown
5:35 AM 63.7 °F - 63.0 °F 97% 30.24 in - SSW 4.6 mph - N/A   Unknown
5:55 AM 63.9 °F - 63.1 °F 97% 30.24 in - SSW 6.9 mph - N/A   Unknown
6:15 AM 63.7 °F - 63.0 °F 97% 30.24 in - SSW 5.8 mph - N/A   Unknown
6:35 AM 62.4 °F - 62.4 °F 100% 30.24 in - SSW 4.6 mph - N/A   Unknown
6:55 AM 62.6 °F - 62.4 °F 99% 30.24 in - SSW 4.6 mph - N/A   Unknown
7:15 AM 62.6 °F - 62.4 °F 99% 30.24 in - SSW 4.6 mph - N/A   Unknown
7:35 AM 63.3 °F - 62.6 °F 97% 30.25 in - Calm Calm - N/A   Unknown
7:55 AM 64.0 °F - 62.8 °F 96% 30.25 in - Calm Calm - N/A   Unknown
8:15 AM 65.3 °F - 63.5 °F 94% 30.25 in - Calm Calm - N/A   Unknown
8:35 AM 67.6 °F - 64.4 °F 89% 30.26 in - SSW 4.6 mph - N/A   Unknown
8:55 AM 69.1 °F - 63.9 °F 83% 30.26 in - South 4.6 mph - N/A   Clear
9:15 AM 70.7 °F - 64.2 °F 80% 30.26 in - SSW 4.6 mph - N/A   Clear
9:35 AM 73.4 °F - 64.6 °F 74% 30.26 in - SSW 6.9 mph - N/A   Clear
9:55 AM 75.2 °F - 64.4 °F 69% 30.26 in - WSW 5.8 mph - N/A   Clear
10:15 AM 76.3 °F - 64.6 °F 67% 30.26 in - SSW 4.6 mph - N/A   Clear
10:35 AM 77.9 °F - 64.4 °F 63% 30.26 in - SW 5.8 mph - N/A   Clear
10:55 AM 78.6 °F - 64.8 °F 62% 30.26 in - SW 4.6 mph - N/A   Clear
11:15 AM 81.0 °F 82.7 °F 65.1 °F 58% 30.26 in - SW 5.8 mph - N/A   Clear
11:35 AM 82.6 °F 84.3 °F 64.8 °F 55% 30.25 in - SW 3.5 mph - N/A   Clear
11:55 AM 83.7 °F 85.5 °F 65.3 °F 54% 30.24 in - Calm Calm - N/A   Clear
12:15 PM 85.5 °F 87.4 °F 65.5 °F 51% 30.23 in - SSW 4.6 mph - N/A   Clear
12:35 PM 87.1 °F 88.9 °F 64.9 °F 48% 30.22 in - SSW 3.5 mph - N/A   Clear
12:55 PM 88.0 °F 89.3 °F 64.2 °F 45% 30.22 in - SSW 6.9 mph - N/A   Clear
1:15 PM 87.1 °F 88.0 °F 63.7 °F 45% 30.21 in - Calm Calm - N/A   Clear
1:35 PM 88.9 °F 90.0 °F 63.9 °F 43% 30.20 in - WSW 4.6 mph - N/A   Clear
1:55 PM 88.3 °F 89.2 °F 63.3 °F 43% 30.19 in - SSW 11.5 mph - N/A   Scattered Clouds
2:15 PM 88.5 °F 89.5 °F 63.1 °F 43% 30.18 in - South 3.5 mph - N/A   Scattered Clouds
2:35 PM 89.8 °F 91.0 °F 63.7 °F 42% 30.17 in - SSW 6.9 mph - N/A   Mostly Cloudy
2:55 PM 90.5 °F 91.1 °F 62.6 °F 39% 30.17 in - SSW 8.1 mph - N/A   Mostly Cloudy
3:15 PM 89.2 °F 89.9 °F 62.4 °F 41% 30.16 in - SW 5.8 mph - N/A   Scattered Clouds
3:35 PM 91.0 °F 91.5 °F 62.1 °F 38% 30.15 in - SW 11.5 mph 17.3 mph N/A   Mostly Cloudy
3:55 PM 89.8 °F 90.4 °F 62.6 °F 40% 30.14 in - SSW 11.5 mph 16.1 mph N/A   Scattered Clouds
4:15 PM 89.1 °F 90.0 °F 63.5 °F 42% 30.14 in - South 9.2 mph - N/A   Clear
4:35 PM 88.7 °F 89.8 °F 63.3 °F 43% 30.14 in - South 9.2 mph - N/A   Scattered Clouds
4:55 PM 89.1 °F 90.3 °F 63.7 °F 43% 30.14 in - South 12.7 mph - N/A   Scattered Clouds
5:15 PM 87.6 °F 88.5 °F 63.1 °F 44% 30.14 in - SSE 9.2 mph - N/A   Clear
5:35 PM 87.8 °F 88.8 °F 63.7 °F 44% 30.14 in - SSE 9.2 mph - N/A   Clear
5:55 PM 86.9 °F 88.1 °F 63.7 °F 46% 30.14 in - South 8.1 mph - N/A   Clear
6:15 PM 85.6 °F 86.8 °F 63.7 °F 48% 30.14 in - SSE 9.2 mph - N/A   Clear
6:55 PM 82.6 °F 84.1 °F 64.6 °F 54% 30.14 in - South 8.1 mph - N/A   Clear
7:15 PM 80.6 °F 82.4 °F 64.9 °F 59% 30.14 in - SSE 4.6 mph - N/A   Clear
7:35 PM 79.3 °F - 65.1 °F 62% 30.15 in - South 6.9 mph - N/A   Clear
7:55 PM 78.3 °F - 64.9 °F 63% 30.15 in - South 6.9 mph - N/A   Clear
8:15 PM 77.5 °F - 65.1 °F 65% 30.16 in - South 8.1 mph - N/A   Clear
8:35 PM 77.0 °F - 65.3 °F 67% 30.16 in - South 6.9 mph - N/A   Clear
8:55 PM 76.1 °F - 65.7 °F 70% 30.16 in - South 8.1 mph - N/A   Clear
9:15 PM 75.4 °F - 65.8 °F 72% 30.17 in - South 8.1 mph - N/A   Clear
9:55 PM 74.7 °F - 66.2 °F 75% 30.17 in - South 6.9 mph - N/A   Clear
10:35 PM 73.0 °F - 66.2 °F 79% 30.16 in - South 6.9 mph - N/A   Clear
10:55 PM 72.7 °F - 65.8 °F 79% 30.16 in - South 6.9 mph - N/A   Clear
11:15 PM 72.7 °F - 65.7 °F 79% 30.16 in - South 9.2 mph - N/A   Clear
11:35 PM 72.9 °F - 65.5 °F 78% 30.16 in - South 10.4 mph - N/A   Clear
11:55 PM 72.1 °F - 65.5 °F 79% 30.16 in - South 9.2 mph - N/A   Clear